Weather History for KBHM - October, 2014

Change the Weather History Date:

Wednesday, October 1, 2014

  Actual Average Record
Temperature  
Mean Temperature 74 °F 69 °F  
Max Temperature 88 °F 80 °F 94 °F (1919)
Min Temperature 60 °F 58 °F 40 °F (1972)
Degree Days  
Heating Degree Days 0 1  
Month to date heating degree days 0 1  
Since 1 July heating degree days 0 10  
Cooling Degree Days 9 5  
Month to date cooling degree days 9 5  
Year to date cooling degree days 2025 1955  
Growing Degree Days 24 (Base 50)    
Moisture  
Dew Point 59 °F    
Average Humidity 66    
Maximum Humidity 97    
Minimum Humidity 34    
Precipitation  
Precipitation 0.00 in 0.12 in 1.83 in (1906)
Month to date precipitation 0.00 0.12  
Year to date precipitation 34.50 41.10  
Sea Level Pressure  
Sea Level Pressure 29.97 in    
Wind  
Wind Speed 2 mph (East)    
Max Wind Speed 10 mph    
Max Gust Speed 16 mph    
Visibility 10 miles    
Events      
T = Trace of Precipitation, MM = Missing Value Source: NWS Daily Summary

Daily Weather History Graph

Daily Weather History Graph

Search for Another Location

Airport or City:

Trip Planner

Search our weather history database for the weather conditions in past years. The results will help you decide how hot, cold, wet, or windy it might be!

Date:

Astronomy

Oct. 01, 2014 Rise Set
Actual Time 6:41 AM CDT 6:31 PM CDT
Civil Twilight 6:16 AM CDT 6:56 PM CDT
Nautical Twilight 5:47 AM CDT 7:24 PM CDT
Astronomical Twilight 5:18 AM CDT 7:53 PM CDT
Moon 1:29 PM CDT (10/1) No Moon Set
Length of Visible Light 12h 39m
Length of Day
11h 50m
Waxing Crescent, 49% of the Moon is Illuminated
Oct 1
Waxing Crescent
Oct 1
First Quarter
Oct 8
Full
Oct 15
Last Quarter
Oct 23
New

Hourly Weather History & Observations

Time (CDT) Temp. Heat Index Dew Point Humidity Pressure Visibility Wind Dir Wind Speed Gust Speed Precip Events Conditions
12:53 AM 69.1 °F - 64.0 °F 84% 29.93 in 10.0 mi ENE 3.5 mph - N/A   Clear
1:53 AM 68.0 °F - 64.0 °F 87% 29.93 in 10.0 mi ENE 4.6 mph - N/A   Clear
2:53 AM 66.9 °F - 63.0 °F 87% 29.93 in 10.0 mi ENE 3.5 mph - N/A   Clear
3:53 AM 62.6 °F - 59.0 °F 88% 29.95 in 10.0 mi Calm Calm - N/A   Clear
4:53 AM 62.1 °F - 59.0 °F 90% 29.94 in 10.0 mi Calm Calm - N/A   Clear
5:53 AM 62.1 °F - 57.9 °F 86% 29.96 in 10.0 mi Calm Calm - N/A   Clear
6:53 AM 61.0 °F - 59.0 °F 93% 29.99 in 10.0 mi Calm Calm - N/A   Partly Cloudy
7:53 AM 66.0 °F - 61.0 °F 84% 30.00 in 10.0 mi Calm Calm - N/A   Partly Cloudy
8:53 AM 73.0 °F - 63.0 °F 71% 30.01 in 10.0 mi Calm Calm - N/A   Clear
9:53 AM 78.1 °F - 61.0 °F 56% 30.01 in 10.0 mi Calm Calm - N/A   Partly Cloudy
10:53 AM 80.1 °F 80.9 °F 60.1 °F 50% 30.01 in 10.0 mi Variable 3.5 mph - N/A   Partly Cloudy
11:53 AM 84.2 °F 83.5 °F 57.2 °F 40% 30.02 in 10.0 mi South 8.1 mph 16.1 mph N/A   Scattered Clouds
12:53 PM 86.0 °F 84.9 °F 57.0 °F 37% 29.98 in 10.0 mi East 6.9 mph - N/A   Scattered Clouds
1:53 PM 88.0 °F 86.5 °F 55.9 °F 34% 29.96 in 10.0 mi Variable 6.9 mph - N/A   Scattered Clouds
2:53 PM 84.0 °F 83.0 °F 55.9 °F 38% 29.95 in 10.0 mi Variable 3.5 mph - N/A   Scattered Clouds
3:53 PM 84.0 °F 83.8 °F 59.0 °F 43% 29.88 in 10.0 mi NNE 9.2 mph - N/A   Scattered Clouds
4:53 PM 87.1 °F 85.3 °F 55.0 °F 33% 29.93 in 10.0 mi Variable 3.5 mph - N/A   Scattered Clouds
5:53 PM 84.0 °F 82.9 °F 55.0 °F 37% 29.94 in 10.0 mi SE 5.8 mph - N/A   Partly Cloudy
6:53 PM 80.1 °F 80.4 °F 57.0 °F 45% 29.94 in 10.0 mi ESE 3.5 mph - N/A   Partly Cloudy
7:53 PM 75.0 °F - 59.0 °F 57% 29.96 in 10.0 mi Calm Calm - N/A   Clear
8:53 PM 75.9 °F - 59.0 °F 56% 29.98 in 10.0 mi SE 4.6 mph - N/A   Clear
9:53 PM 73.9 °F - 60.1 °F 62% 29.99 in 10.0 mi Calm Calm - N/A   Clear
10:53 PM 73.0 °F - 61.0 °F 66% 30.00 in 10.0 mi Calm Calm - N/A   Clear
11:53 PM 72.0 °F - 62.1 °F 71% 30.00 in 10.0 mi Calm Calm - N/A   Clear